Starlink 2585

operational
NORAD ID: 48382 Int'l Des: 2021-038 Owner: SPXS Country: US Constellation: starlink
LEOCIRCULARSTARLINK_TYPE

Über Starlink 2585

Beschreibung wird geladen...

Live-Position

3D-Globus wird geladen...

Nächste Überflüge

Höhenverlauf

Altitude vs Time

uPlot chart will show altitude changes over time

Zweizeiliger Elementsatz

1 48382U 21038AF 25305.01175069 .00014561 00000-0 99331-3 0 9998
2 48382 53.0544 209.2776 0001410 95.3444 264.7706 15.06440033247771
Epoch: 1. Nov. 2025 • Age: 28 hours

Aktueller Status

Höhe 551.8 km
Geschwindigkeit 7.59 km/s
Subsatellitenpunkt 49.66°N, 136.68°W
Startdatum 4. Mai 2021
Alter 4.4 years
Typ internet

Technische Details

Klassifizierung Payload
Masse 260.00 kg
Trockenmasse 248.00 kg
Gesamtmasse 260.00 kg
Länge 0.20 m
Durchmesser 2.80 m
Spannweite 9.00 m
Form Box + pan
Hersteller SPXS
Bus-Typ Starlink
Phasenstatus In Orbit
Besitzer/Staat SPXS/US

Große Konstellationen

Loading constellations...